,,,PA_Meas_PMT16A,,PR_Meas_QMR101_102,,RH_Meas_QMH101,,SR_Meas_QMS101,,TA_Meas_QMH101,,GenWind,,GenWind,
date,time,status,PA,status,PR,status,RH,status,SR,status,TA,status,DirAvg,status,SpdAvg,
2014-03-28, 00:00:05,VALID,1010.86,VALID,0,INVALID,110.124,VALID,0.112112,VALID,24.2963,VALID,64,VALID,0,
2014-03-28, 00:01:05,VALID,1010.85,VALID,0,INVALID,110.154,VALID,0.112112,VALID,24.2963,VALID,65,VALID,0,
2014-03-28, 00:02:05,VALID,1010.86,VALID,0,INVALID,110.093,VALID,0.112112,VALID,24.2768,VALID,65,VALID,0,
2014-03-28, 00:03:05,VALID,1010.84,VALID,0,INVALID,110.047,VALID,0,VALID,24.2786,VALID,64,VALID,0,
2014-03-28, 00:04:05,VALID,1010.83,VALID,0,INVALID,110.063,VALID,0,VALID,24.2591,VALID,64,VALID,0,
2014-03-28, 00:05:05,VALID,1010.82,VALID,0,INVALID,110.085,VALID,0,VALID,24.2591,VALID,64,VALID,0,
2014-03-28, 00:06:05,VALID,1010.82,VALID,0,INVALID,110.047,VALID,0,VALID,24.2591,VALID,64,VALID,0,
2014-03-28, 00:07:05,VALID,1010.81,VALID,0,INVALID,110.101,VALID,0,VALID,24.2591,VALID,64,VALID,0,
2014-03-28, 00:08:05,VALID,1010.82,VALID,0,INVALID,110.032,VALID,0,VALID,24.2591,VALID,65,VALID,0,
2014-03-28, 00:09:05,VALID,1010.82,VALID,0,INVALID,110.024,VALID,0,VALID,24.2591,VALID,64,VALID,0,
2014-03-28, 00:10:05,VALID,1010.77,VALID,0,INVALID,109.979,VALID,0,VALID,24.2396,VALID,64,VALID,0,
2014-03-28, 00:11:05,VALID,1010.78,VALID,0,INVALID,110.009,VALID,0,VALID,24.2202,VALID,64,VALID,0,
2014-03-28, 00:12:05,VALID,1010.77,VALID,0,INVALID,110.04,VALID,0,VALID,24.2415,VALID,64,VALID,0,
2014-03-28, 00:13:05,VALID,1010.79,VALID,0,INVALID,110.04,VALID,0,VALID,24.2202,VALID,64,VALID,0,
2014-03-28, 00:14:05,VALID,1010.78,VALID,0,INVALID,110.001,VALID,0,VALID,24.2202,VALID,64,VALID,0,
2014-03-28, 00:15:05,VALID,1010.77,VALID,0,INVALID,109.948,VALID,0,VALID,24.2202,VALID,64,VALID,0,
2014-03-28, 00:16:05,VALID,1010.78,VALID,0,INVALID,109.986,VALID,0,VALID,24.222,VALID,64,VALID,0,
2014-03-28, 00:17:05,VALID,1010.75,VALID,0,INVALID,109.963,VALID,0,VALID,24.2007,VALID,64,VALID,0,
2014-03-28, 00:18:05,VALID,1010.78,VALID,0,INVALID,109.979,VALID,0,VALID,24.1812,VALID,64,VALID,0,
2014-03-28, 00:19:05,VALID,1010.72,VALID,0,INVALID,109.918,VALID,0,VALID,24.1812,VALID,64,VALID,0,
2014-03-28, 00:20:05,VALID,1010.75,VALID,0,INVALID,109.879,VALID,0,VALID,24.2025,VALID,65,VALID,0,
2014-03-28, 00:21:05,VALID,1010.73,VALID,0,INVALID,109.902,VALID,0,VALID,24.1812,VALID,64,VALID,0,
2014-03-28, 00:22:05,VALID,1010.73,VALID,0,INVALID,109.902,VALID,0,VALID,24.1812,VALID,64,VALID,0,
2014-03-28, 00:23:05,VALID,1010.74,VALID,0,INVALID,109.918,VALID,0,VALID,24.1812,VALID,64,VALID,0,
2014-03-28, 00:24:05,VALID,1010.72,VALID,0,INVALID,109.872,VALID,0,VALID,24.1617,VALID,64,VALID,0,
2014-03-28, 00:25:05,VALID,1010.7,VALID,0,INVALID,109.979,VALID,0,VALID,24.1635,VALID,64,VALID,0,
2014-03-28, 00:26:05,VALID,1010.69,VALID,0,INVALID,109.879,VALID,0,VALID,24.1422,VALID,64,VALID,0,
2014-03-28, 00:27:05,VALID,1010.69,VALID,0,INVALID,109.857,VALID,0,VALID,24.1422,VALID,64,VALID,0,
2014-03-28, 00:28:05,VALID,1010.68,VALID,0,INVALID,109.879,VALID,0,VALID,24.1635,VALID,64,VALID,0,
2014-03-28, 00:29:04,VALID,1010.67,VALID,0,INVALID,109.864,VALID,0,VALID,24.1422,VALID,64,VALID,0,
2014-03-28, 00:30:04,VALID,1010.64,VALID,0,INVALID,109.857,VALID,0.112112,VALID,24.1014,VALID,65,VALID,0,
2014-03-28, 00:31:04,VALID,1010.64,VALID,0,INVALID,109.849,VALID,0,VALID,24.1032,VALID,64,VALID,0,
2014-03-28, 00:32:04,VALID,1010.6,VALID,0,INVALID,109.849,VALID,0,VALID,24.1032,VALID,65,VALID,0,
2014-03-28, 00:33:04,VALID,1010.61,VALID,0,INVALID,109.887,VALID,0,VALID,24.0837,VALID,65,VALID,0,
2014-03-28, 00:34:04,VALID,1010.6,VALID,0,INVALID,109.887,VALID,0,VALID,24.0448,VALID,65,VALID,0,
2014-03-28, 00:35:04,VALID,1010.56,VALID,0,INVALID,109.895,VALID,0.112112,VALID,24.0448,VALID,65,VALID,0,
2014-03-28, 00:36:04,VALID,1010.54,VALID,0,INVALID,109.887,VALID,0,VALID,24.0448,VALID,64,VALID,0,
2014-03-28, 00:37:04,VALID,1010.53,VALID,0,INVALID,109.857,VALID,0,VALID,24.0448,VALID,65,VALID,0,
2014-03-28, 00:38:04,VALID,1010.51,VALID,0,INVALID,109.826,VALID,0,VALID,24.0448,VALID,64,VALID,0,
2014-03-28, 00:39:04,VALID,1010.51,VALID,0,INVALID,109.849,VALID,0,VALID,24.0448,VALID,64,VALID,0,
2014-03-28, 00:40:04,VALID,1010.49,VALID,0,INVALID,109.803,VALID,0,VALID,24.0253,VALID,64,VALID,0,
2014-03-28, 00:41:04,VALID,1010.44,VALID,0,INVALID,109.826,VALID,0,VALID,24.0253,VALID,64,VALID,0,
2014-03-28, 00:42:04,VALID,1010.44,VALID,0,INVALID,109.834,VALID,0,VALID,24.0058,VALID,64,VALID,0,
2014-03-28, 00:43:04,VALID,1010.43,VALID,0,INVALID,109.841,VALID,0,VALID,24.0058,VALID,65,VALID,0,
2014-03-28, 00:44:04,VALID,1010.42,VALID,0,INVALID,109.765,VALID,0,VALID,24.0253,VALID,65,VALID,0,
2014-03-28, 00:45:04,VALID,1010.4,VALID,0,INVALID,109.727,VALID,0,VALID,24.0837,VALID,64,VALID,0,
2014-03-28, 00:46:04,VALID,1010.38,VALID,0,INVALID,109.651,VALID,0,VALID,24.0837,VALID,65,VALID,0,
2014-03-28, 00:47:04,VALID,1010.38,VALID,0,INVALID,109.704,VALID,0.112112,VALID,24.1032,VALID,64,VALID,0,
2014-03-28, 00:48:04,VALID,1010.37,VALID,0,INVALID,109.643,VALID,0,VALID,24.1032,VALID,64,VALID,0,
2014-03-28, 00:49:04,VALID,1010.34,VALID,0,INVALID,109.666,VALID,0,VALID,24.1227,VALID,64,VALID,0,
2014-03-28, 00:50:04,VALID,1010.33,VALID,0,INVALID,109.681,VALID,0,VALID,24.1422,VALID,65,VALID,0,
2014-03-28, 00:51:04,VALID,1010.33,VALID,0,INVALID,109.59,VALID,0,VALID,24.1422,VALID,64,VALID,0,
2014-03-28, 00:52:04,VALID,1010.32,VALID,0,INVALID,109.635,VALID,0,VALID,24.1422,VALID,64,VALID,0,
2014-03-28, 00:53:04,VALID,1010.33,VALID,0,INVALID,109.628,VALID,0,VALID,24.1422,VALID,65,VALID,0,
2014-03-28, 00:54:04,VALID,1010.33,VALID,0,INVALID,109.59,VALID,0,VALID,24.1014,VALID,64,VALID,0,
2014-03-28, 00:55:04,VALID,1010.34,VALID,0,INVALID,109.605,VALID,0,VALID,24.1032,VALID,64,VALID,0,
2014-03-28, 00:56:04,VALID,1010.34,VALID,0,INVALID,109.605,VALID,0,VALID,24.1032,VALID,65,VALID,0,
2014-03-28, 00:57:04,VALID,1010.35,VALID,0,INVALID,109.605,VALID,0,VALID,24.1227,VALID,64,VALID,0,
2014-03-28, 00:58:04,VALID,1010.38,VALID,0,INVALID,109.567,VALID,0,VALID,24.0837,VALID,65,VALID,0,
2014-03-28, 00:59:04,VALID,1010.36,VALID,0,INVALID,109.567,VALID,0,VALID,24.0837,VALID,64,VALID,0,
2014-03-28, 01:00:04,VALID,1010.36,VALID,0,INVALID,109.552,VALID,0,VALID,24.1032,VALID,64,VALID,0,
2014-03-28, 01:01:04,VALID,1010.34,VALID,0,INVALID,109.498,VALID,0,VALID,24.0819,VALID,64,VALID,0,
2014-03-28, 01:02:04,VALID,1010.37,VALID,0,INVALID,109.491,VALID,0,VALID,24.1032,VALID,64,VALID,0,
2014-03-28, 01:03:04,VALID,1010.35,VALID,0,INVALID,109.43,VALID,0,VALID,24.1032,VALID,64,VALID,0,
2014-03-28, 01:04:04,VALID,1010.34,VALID,0,INVALID,109.445,VALID,0,VALID,24.1209,VALID,65,VALID,0,
2014-03-28, 01:05:04,VALID,1010.35,VALID,0,INVALID,109.498,VALID,0,VALID,24.1617,VALID,65,VALID,0,
2014-03-28, 01:06:04,VALID,1010.35,VALID,0,INVALID,109.529,VALID,0,VALID,24.1617,VALID,64,VALID,0,
2014-03-28, 01:07:04,VALID,1010.33,VALID,0,INVALID,109.422,VALID,0,VALID,24.1617,VALID,64,VALID,0,
2014-03-28, 01:08:04,VALID,1010.31,VALID,0,INVALID,109.399,VALID,0,VALID,24.1812,VALID,64,VALID,0,
2014-03-28, 01:09:04,VALID,1010.33,VALID,0,INVALID,109.452,VALID,0,VALID,24.1812,VALID,64,VALID,0,
2014-03-28, 01:10:04,VALID,1010.33,VALID,0,INVALID,109.361,VALID,0,VALID,24.1617,VALID,64,VALID,0,
2014-03-28, 01:11:04,VALID,1010.34,VALID,0,INVALID,109.353,VALID,0,VALID,24.1617,VALID,64,VALID,0,
2014-03-28, 01:12:04,VALID,1010.33,VALID,0,INVALID,109.33,VALID,0,VALID,24.1617,VALID,65,VALID,0,
2014-03-28, 01:13:04,VALID,1010.3,VALID,0,INVALID,109.33,VALID,0,VALID,24.1812,VALID,65,VALID,0,
2014-03-28, 01:14:04,VALID,1010.3,VALID,0,INVALID,109.323,VALID,0,VALID,24.1617,VALID,64,VALID,0,
2014-03-28, 01:15:04,VALID,1010.25,VALID,0,INVALID,109.369,VALID,0,VALID,24.1617,VALID,64,VALID,0,
2014-03-28, 01:16:04,VALID,1010.26,VALID,0,INVALID,109.33,VALID,0,VALID,24.1422,VALID,64,VALID,0,
2014-03-28, 01:17:04,VALID,1010.21,VALID,0,INVALID,109.414,VALID,0,VALID,24.1422,VALID,64,VALID,0,
2014-03-28, 01:18:04,VALID,1010.2,VALID,0,INVALID,109.407,VALID,0,VALID,24.1227,VALID,65,VALID,0,
2014-03-28, 01:19:04,VALID,1010.18,VALID,0,INVALID,109.445,VALID,0,VALID,24.1014,VALID,64,VALID,0,
2014-03-28, 01:20:04,VALID,1010.21,VALID,0,INVALID,109.391,VALID,0,VALID,24.1422,VALID,64,VALID,0,
2014-03-28, 01:21:04,VALID,1010.2,VALID,0,INVALID,109.33,VALID,0,VALID,24.1227,VALID,65,VALID,0,
2014-03-28, 01:22:04,VALID,1010.24,VALID,0,INVALID,109.391,VALID,0,VALID,24.1032,VALID,64,VALID,0,
2014-03-28, 01:23:04,VALID,1010.26,VALID,0,INVALID,109.384,VALID,0,VALID,24.1227,VALID,65,VALID,0,
2014-03-28, 01:24:04,VALID,1010.27,VALID,0,INVALID,109.308,VALID,0,VALID,24.1032,VALID,64,VALID,0,
2014-03-28, 01:25:04,VALID,1010.31,VALID,0,INVALID,109.353,VALID,0,VALID,24.1032,VALID,64,VALID,0,
2014-03-28, 01:26:04,VALID,1010.3,VALID,0,INVALID,109.308,VALID,0,VALID,24.1032,VALID,65,VALID,0,
2014-03-28, 01:27:04,VALID,1010.29,VALID,0,INVALID,109.323,VALID,0,VALID,24.1032,VALID,64,VALID,0,
2014-03-28, 01:28:04,VALID,1010.27,VALID,0,INVALID,109.33,VALID,0,VALID,24.1227,VALID,64,VALID,0,
2014-03-28, 01:29:04,VALID,1010.27,VALID,0,INVALID,109.285,VALID,0,VALID,24.1032,VALID,65,VALID,0,
2014-03-28, 01:30:04,VALID,1010.26,VALID,0,INVALID,109.338,VALID,0,VALID,24.1032,VALID,65,VALID,0,
2014-03-28, 01:31:04,VALID,1010.25,VALID,0,INVALID,109.323,VALID,0,VALID,24.1032,VALID,65,VALID,0,
2014-03-28, 01:32:04,VALID,1010.24,VALID,0,INVALID,109.33,VALID,0,VALID,24.1032,VALID,64,VALID,0,
2014-03-28, 01:33:04,VALID,1010.23,VALID,0,INVALID,109.384,VALID,0,VALID,24.0837,VALID,64,VALID,0,
2014-03-28, 01:34:04,VALID,1010.24,VALID,0,INVALID,109.277,VALID,0,VALID,24.0837,VALID,64,VALID,0,
2014-03-28, 01:35:04,VALID,1010.25,VALID,0,INVALID,109.353,VALID,0,VALID,24.0837,VALID,64,VALID,0,
2014-03-28, 01:36:04,VALID,1010.27,VALID,0,INVALID,109.361,VALID,0,VALID,24.0837,VALID,64,VALID,0,
2014-03-28, 01:37:04,VALID,1010.28,VALID,0,INVALID,109.285,VALID,0,VALID,24.0643,VALID,64,VALID,0,
2014-03-28, 01:38:04,VALID,1010.28,VALID,0,INVALID,109.338,VALID,0,VALID,24.0643,VALID,64,VALID,0,
2014-03-28, 01:39:04,VALID,1010.29,VALID,0,INVALID,109.399,VALID,0,VALID,24.0661,VALID,64,VALID,0,
2014-03-28, 01:40:04,VALID,1010.27,VALID,0,INVALID,109.338,VALID,0,VALID,24.0253,VALID,64,VALID,0,
2014-03-28, 01:41:04,VALID,1010.26,VALID,0,INVALID,109.43,VALID,0,VALID,24.0253,VALID,64,VALID,0,
2014-03-28, 01:42:04,VALID,1010.26,VALID,0,INVALID,109.315,VALID,0,VALID,24.0253,VALID,64,VALID,0,
2014-03-28, 01:43:04,VALID,1010.26,VALID,0,INVALID,109.353,VALID,0,VALID,24.0253,VALID,64,VALID,0,
2014-03-28, 01:44:04,VALID,1010.25,VALID,0,INVALID,109.369,VALID,0,VALID,24.0058,VALID,65,VALID,0,
2014-03-28, 01:45:04,VALID,1010.25,VALID,0,INVALID,109.285,VALID,0,VALID,24.0253,VALID,64,VALID,0,
2014-03-28, 01:46:04,VALID,1010.24,VALID,0,INVALID,109.338,VALID,0,VALID,24.0448,VALID,64,VALID,0,
2014-03-28, 01:47:04,VALID,1010.23,VALID,0,INVALID,109.399,VALID,0,VALID,24.0253,VALID,64,VALID,0,
2014-03-28, 01:48:04,VALID,1010.22,VALID,0,INVALID,109.292,VALID,0,VALID,24.0253,VALID,64,VALID,0,
2014-03-28, 01:49:04,VALID,1010.18,VALID,0,INVALID,109.414,VALID,0,VALID,24.0253,VALID,64,VALID,0,
2014-03-28, 01:50:04,VALID,1010.14,VALID,0,INVALID,109.353,VALID,0,VALID,24.0253,VALID,64,VALID,0,
2014-03-28, 01:51:04,VALID,1010.14,VALID,0,INVALID,109.346,VALID,0,VALID,23.9863,VALID,65,VALID,0,
2014-03-28, 01:52:04,VALID,1010.13,VALID,0,INVALID,109.308,VALID,0,VALID,23.9863,VALID,64,VALID,0,
2014-03-28, 01:53:04,VALID,1010.14,VALID,0,INVALID,109.338,VALID,0,VALID,24.0058,VALID,64,VALID,0,
2014-03-28, 01:54:04,VALID,1010.13,VALID,0,INVALID,109.33,VALID,0,VALID,24.0058,VALID,65,VALID,0,
2014-03-28, 01:55:04,VALID,1010.13,VALID,0,INVALID,109.269,VALID,0,VALID,24.0058,VALID,64,VALID,0,
2014-03-28, 01:56:04,VALID,1010.14,VALID,0,INVALID,109.369,VALID,0,VALID,23.9863,VALID,64,VALID,0,
2014-03-28, 01:57:04,VALID,1010.12,VALID,0,INVALID,109.361,VALID,0,VALID,23.9863,VALID,65,VALID,0,
2014-03-28, 01:58:04,VALID,1010.12,VALID,0,INVALID,109.353,VALID,0,VALID,23.9668,VALID,64,VALID,0,
2014-03-28, 01:59:04,VALID,1010.09,VALID,0,INVALID,109.346,VALID,0,VALID,23.9473,VALID,64,VALID,0,
2014-03-28, 02:00:04,VALID,1010.08,VALID,0,INVALID,109.346,VALID,0,VALID,23.9473,VALID,65,VALID,0,
2014-03-28, 02:01:04,VALID,1010.07,VALID,0,INVALID,109.399,VALID,0,VALID,23.9278,VALID,64,VALID,0,
2014-03-28, 02:02:04,VALID,1010.07,VALID,0,INVALID,109.445,VALID,0,VALID,23.9491,VALID,65,VALID,0,
2014-03-28, 02:03:04,VALID,1010.06,VALID,0,INVALID,109.445,VALID,0,VALID,23.9084,VALID,64,VALID,0,
2014-03-28, 02:04:04,VALID,1010.06,VALID,0,INVALID,109.384,VALID,0,VALID,23.9297,VALID,64,VALID,0,
2014-03-28, 02:05:04,VALID,1010.04,VALID,0,INVALID,109.399,VALID,0,VALID,23.9278,VALID,65,VALID,0,
2014-03-28, 02:06:04,VALID,1010.05,VALID,0,INVALID,109.43,VALID,0.112112,VALID,23.9084,VALID,64,VALID,0,
2014-03-28, 02:07:04,VALID,1010.06,VALID,0,INVALID,109.407,VALID,0.112112,VALID,23.8871,VALID,64,VALID,0,
2014-03-28, 02:08:04,VALID,1010.05,VALID,0,INVALID,109.384,VALID,0.112112,VALID,23.8871,VALID,65,VALID,0,
2014-03-28, 02:09:04,VALID,1010.07,VALID,0,INVALID,109.384,VALID,0.112112,VALID,23.9084,VALID,64,VALID,0,
2014-03-28, 02:10:04,VALID,1010.04,VALID,0,INVALID,109.445,VALID,0.112112,VALID,23.8676,VALID,65,VALID,0,
2014-03-28, 02:11:04,VALID,1010.07,VALID,0,INVALID,109.3,VALID,0.112112,VALID,23.8871,VALID,65,VALID,0,
2014-03-28, 02:12:04,VALID,1010.08,VALID,0,INVALID,109.422,VALID,0.112112,VALID,23.8871,VALID,65,VALID,0,
2014-03-28, 02:13:04,VALID,1010.06,VALID,0,INVALID,109.445,VALID,0,VALID,23.8871,VALID,65,VALID,0,
2014-03-28, 02:14:04,VALID,1010.04,VALID,0,INVALID,109.445,VALID,0.112112,VALID,23.8676,VALID,64,VALID,0,
2014-03-28, 02:15:04,VALID,1010.05,VALID,0,INVALID,109.43,VALID,0.112112,VALID,23.8676,VALID,65,VALID,0,
2014-03-28, 02:16:04,VALID,1010.02,VALID,0,INVALID,109.452,VALID,0.112112,VALID,23.8676,VALID,64,VALID,0,
2014-03-28, 02:17:04,VALID,1010,VALID,0,INVALID,109.399,VALID,0.112112,VALID,23.8676,VALID,64,VALID,0,
2014-03-28, 02:18:04,VALID,1009.99,VALID,0,INVALID,109.346,VALID,0.112112,VALID,23.8676,VALID,65,VALID,0,
2014-03-28, 02:19:04,VALID,1009.97,VALID,0,INVALID,109.33,VALID,0.112112,VALID,23.8676,VALID,64,VALID,0,
2014-03-28, 02:20:04,VALID,1009.98,VALID,0,INVALID,109.33,VALID,0,VALID,23.8694,VALID,64,VALID,0,
2014-03-28, 02:21:04,VALID,1009.94,VALID,0,INVALID,109.414,VALID,0,VALID,23.8286,VALID,65,VALID,0,
2014-03-28, 02:22:04,VALID,1009.96,VALID,0,INVALID,109.445,VALID,0,VALID,23.8694,VALID,65,VALID,0,
2014-03-28, 02:23:04,VALID,1009.95,VALID,0,INVALID,109.414,VALID,0,VALID,23.8499,VALID,65,VALID,0,
2014-03-28, 02:24:04,VALID,1009.95,VALID,0,INVALID,109.414,VALID,0,VALID,23.8694,VALID,64,VALID,0,
2014-03-28, 02:25:04,VALID,1009.97,VALID,0,INVALID,109.407,VALID,0,VALID,23.8499,VALID,64,VALID,0,
2014-03-28, 02:26:04,VALID,1009.96,VALID,0,INVALID,109.43,VALID,0,VALID,23.8694,VALID,64,VALID,0,
2014-03-28, 02:27:04,VALID,1009.96,VALID,0,INVALID,109.483,VALID,0,VALID,23.8499,VALID,64,VALID,0,
2014-03-28, 02:28:04,VALID,1009.97,VALID,0,INVALID,109.399,VALID,0,VALID,23.8694,VALID,65,VALID,0,
2014-03-28, 02:29:04,VALID,1009.97,VALID,0,INVALID,109.422,VALID,0,VALID,23.8712,VALID,65,VALID,0,
2014-03-28, 02:30:04,VALID,1009.99,VALID,0,INVALID,109.384,VALID,0,VALID,23.8694,VALID,65,VALID,0,
2014-03-28, 02:31:04,VALID,1009.97,VALID,0,INVALID,109.437,VALID,0,VALID,23.8694,VALID,65,VALID,0,
2014-03-28, 02:32:04,VALID,1009.98,VALID,0,INVALID,109.422,VALID,0,VALID,23.8694,VALID,65,VALID,0,
2014-03-28, 02:33:04,VALID,1009.99,VALID,0,INVALID,109.384,VALID,0,VALID,23.8907,VALID,65,VALID,0,
2014-03-28, 02:34:04,VALID,1010.01,VALID,0,INVALID,109.43,VALID,0,VALID,23.8694,VALID,65,VALID,0,
2014-03-28, 02:35:04,VALID,1009.97,VALID,0,INVALID,109.475,VALID,0,VALID,23.8694,VALID,66,VALID,0,
2014-03-28, 02:36:04,VALID,1009.96,VALID,0,INVALID,109.422,VALID,0,VALID,23.8499,VALID,66,VALID,0,
2014-03-28, 02:37:04,VALID,1009.97,VALID,0,INVALID,109.452,VALID,0,VALID,23.8694,VALID,66,VALID,0,
2014-03-28, 02:38:04,VALID,1009.94,VALID,0,INVALID,109.475,VALID,0,VALID,23.8694,VALID,66,VALID,0,
2014-03-28, 02:39:04,VALID,1009.93,VALID,0,INVALID,109.491,VALID,0,VALID,23.8499,VALID,66,VALID,0,
2014-03-28, 02:40:04,VALID,1009.9,VALID,0,INVALID,109.513,VALID,0,VALID,23.8304,VALID,66,VALID,0,
2014-03-28, 02:41:04,VALID,1009.92,VALID,0,INVALID,109.521,VALID,0,VALID,23.8109,VALID,66,VALID,0,
2014-03-28, 02:42:04,VALID,1009.88,VALID,0,INVALID,109.468,VALID,0,VALID,23.8304,VALID,66,VALID,0,
2014-03-28, 02:43:04,VALID,1009.88,VALID,0,INVALID,109.529,VALID,0,VALID,23.8109,VALID,66,VALID,0,
2014-03-28, 02:44:04,VALID,1009.87,VALID,0,INVALID,109.521,VALID,0,VALID,23.8109,VALID,66,VALID,0,
2014-03-28, 02:45:04,VALID,1009.86,VALID,0,INVALID,109.544,VALID,0,VALID,23.7914,VALID,65,VALID,0,
2014-03-28, 02:46:04,VALID,1009.85,VALID,0,INVALID,109.529,VALID,0,VALID,23.7914,VALID,65,VALID,0,
2014-03-28, 02:47:04,VALID,1009.87,VALID,0,INVALID,109.544,VALID,0,VALID,23.772,VALID,66,VALID,0,
2014-03-28, 02:48:04,VALID,1009.86,VALID,0,INVALID,109.536,VALID,0,VALID,23.772,VALID,65,VALID,0,
2014-03-28, 02:49:04,VALID,1009.84,VALID,0,INVALID,109.529,VALID,0,VALID,23.772,VALID,66,VALID,0,
2014-03-28, 02:50:04,VALID,1009.86,VALID,0,INVALID,109.605,VALID,0,VALID,23.7932,VALID,66,VALID,0,
2014-03-28, 02:51:04,VALID,1009.83,VALID,0,INVALID,109.559,VALID,0,VALID,23.772,VALID,66,VALID,0,
2014-03-28, 02:52:04,VALID,1009.81,VALID,0,INVALID,109.552,VALID,0,VALID,23.7738,VALID,66,VALID,0,
2014-03-28, 02:53:04,VALID,1009.8,VALID,0,INVALID,109.567,VALID,0,VALID,23.7738,VALID,66,VALID,0,
2014-03-28, 02:54:04,VALID,1009.77,VALID,0,INVALID,109.59,VALID,0,VALID,23.7738,VALID,66,VALID,0,
2014-03-28, 02:55:04,VALID,1009.75,VALID,0,INVALID,109.544,VALID,0,VALID,23.7738,VALID,66,VALID,0,
2014-03-28, 02:56:04,VALID,1009.76,VALID,0,INVALID,109.552,VALID,0,VALID,23.7543,VALID,66,VALID,0,
2014-03-28, 02:57:04,VALID,1009.75,VALID,0,INVALID,109.567,VALID,0,VALID,23.7543,VALID,66,VALID,0,
2014-03-28, 02:58:04,VALID,1009.75,VALID,0,INVALID,109.597,VALID,0,VALID,23.733,VALID,65,VALID,0,
2014-03-28, 02:59:04,VALID,1009.72,VALID,0,INVALID,109.574,VALID,0,VALID,23.7135,VALID,66,VALID,0,
2014-03-28, 03:00:04,VALID,1009.72,VALID,0,INVALID,109.567,VALID,0,VALID,23.7153,VALID,66,VALID,0,
2014-03-28, 03:01:04,VALID,1009.71,VALID,0,INVALID,109.559,VALID,0,VALID,23.7348,VALID,66,VALID,0,
2014-03-28, 03:02:04,VALID,1009.72,VALID,0,INVALID,109.559,VALID,0,VALID,23.694,VALID,65,VALID,0,
2014-03-28, 03:03:04,VALID,1009.73,VALID,0,INVALID,109.59,VALID,0,VALID,23.7153,VALID,66,VALID,0,
2014-03-28, 03:04:04,VALID,1009.73,VALID,0,INVALID,109.544,VALID,0,VALID,23.7135,VALID,66,VALID,0,
2014-03-28, 03:05:04,VALID,1009.73,VALID,0,INVALID,109.567,VALID,0,VALID,23.733,VALID,66,VALID,0,
2014-03-28, 03:06:04,VALID,1009.7,VALID,0,INVALID,109.521,VALID,0,VALID,23.7543,VALID,66,VALID,0,
2014-03-28, 03:07:04,VALID,1009.69,VALID,0,INVALID,109.559,VALID,0,VALID,23.7738,VALID,66,VALID,0,
2014-03-28, 03:08:04,VALID,1009.72,VALID,0,INVALID,109.544,VALID,0,VALID,23.7543,VALID,65,VALID,0,
2014-03-28, 03:09:04,VALID,1009.69,VALID,0,INVALID,109.559,VALID,0,VALID,23.7348,VALID,65,VALID,0,
2014-03-28, 03:10:04,VALID,1009.7,VALID,0,INVALID,109.597,VALID,0,VALID,23.7135,VALID,66,VALID,0,
2014-03-28, 03:11:04,VALID,1009.68,VALID,0,INVALID,109.529,VALID,0,VALID,23.733,VALID,66,VALID,0,
2014-03-28, 03:12:04,VALID,1009.69,VALID,0,INVALID,109.536,VALID,0,VALID,23.7153,VALID,66,VALID,0,
2014-03-28, 03:13:04,VALID,1009.7,VALID,0,INVALID,109.536,VALID,0,VALID,23.7153,VALID,66,VALID,0,
2014-03-28, 03:14:04,VALID,1009.68,VALID,0,INVALID,109.544,VALID,0,VALID,23.7348,VALID,66,VALID,0,
2014-03-28, 03:15:04,VALID,1009.69,VALID,0,INVALID,109.521,VALID,0,VALID,23.7135,VALID,66,VALID,0,
2014-03-28, 03:16:04,VALID,1009.67,VALID,0,INVALID,109.582,VALID,0,VALID,23.694,VALID,66,VALID,0,
2014-03-28, 03:17:04,VALID,1009.66,VALID,0,INVALID,109.498,VALID,0,VALID,23.7135,VALID,66,VALID,0,
2014-03-28, 03:18:04,VALID,1009.65,VALID,0,INVALID,109.491,VALID,0,VALID,23.7135,VALID,66,VALID,0,
2014-03-28, 03:19:04,VALID,1009.68,VALID,0,INVALID,109.491,VALID,0,VALID,23.7135,VALID,66,VALID,0,
2014-03-28, 03:20:04,VALID,1009.65,VALID,0,INVALID,109.483,VALID,0,VALID,23.7135,VALID,66,VALID,0,
2014-03-28, 03:21:04,VALID,1009.64,VALID,0,INVALID,109.513,VALID,0,VALID,23.694,VALID,66,VALID,0,
2014-03-28, 03:22:04,VALID,1009.65,VALID,0,INVALID,109.491,VALID,0,VALID,23.7135,VALID,65,VALID,0,
2014-03-28, 03:23:04,VALID,1009.64,VALID,0,INVALID,109.491,VALID,0,VALID,23.7153,VALID,65,VALID,0,
2014-03-28, 03:24:04,VALID,1009.61,VALID,0,INVALID,109.468,VALID,0,VALID,23.7153,VALID,65,VALID,0,
2014-03-28, 03:25:04,VALID,1009.6,VALID,0,INVALID,109.46,VALID,0,VALID,23.7135,VALID,66,VALID,0,
2014-03-28, 03:26:04,VALID,1009.61,VALID,0,INVALID,109.414,VALID,0,VALID,23.7135,VALID,66,VALID,0,
2014-03-28, 03:27:04,VALID,1009.6,VALID,0,INVALID,109.475,VALID,0,VALID,23.7348,VALID,66,VALID,0,
2014-03-28, 03:28:04,VALID,1009.59,VALID,0,INVALID,109.43,VALID,0,VALID,23.7135,VALID,66,VALID,0,
2014-03-28, 03:29:04,VALID,1009.56,VALID,0,INVALID,109.445,VALID,0,VALID,23.7135,VALID,66,VALID,0,
2014-03-28, 03:30:04,VALID,1009.58,VALID,0,INVALID,109.437,VALID,0,VALID,23.733,VALID,66,VALID,0,
2014-03-28, 03:31:04,VALID,1009.53,VALID,0,INVALID,109.422,VALID,0,VALID,23.7348,VALID,66,VALID,0,
2014-03-28, 03:32:04,VALID,1009.54,VALID,0,INVALID,109.506,VALID,0,VALID,23.7543,VALID,66,VALID,0,
2014-03-28, 03:33:04,VALID,1009.53,VALID,0,INVALID,109.399,VALID,0,VALID,23.733,VALID,66,VALID,0,
2014-03-28, 03:34:04,VALID,1009.51,VALID,0,INVALID,109.407,VALID,0,VALID,23.733,VALID,66,VALID,0,
2014-03-28, 03:35:04,VALID,1009.51,VALID,0,INVALID,109.407,VALID,0,VALID,23.7135,VALID,65,VALID,0,
2014-03-28, 03:36:04,VALID,1009.52,VALID,0,INVALID,109.407,VALID,0,VALID,23.733,VALID,66,VALID,0,
2014-03-28, 03:37:04,VALID,1009.51,VALID,0,INVALID,109.33,VALID,0,VALID,23.733,VALID,66,VALID,0,
2014-03-28, 03:38:04,VALID,1009.48,VALID,0,INVALID,109.391,VALID,0,VALID,23.733,VALID,66,VALID,0,
2014-03-28, 03:39:04,VALID,1009.51,VALID,0,INVALID,109.346,VALID,0,VALID,23.733,VALID,66,VALID,0,
2014-03-28, 03:40:04,VALID,1009.48,VALID,0,INVALID,109.369,VALID,0,VALID,23.7348,VALID,66,VALID,0,
2014-03-28, 03:41:04,VALID,1009.49,VALID,0,INVALID,109.315,VALID,0,VALID,23.7348,VALID,66,VALID,0,
2014-03-28, 03:42:04,VALID,1009.49,VALID,0,INVALID,109.384,VALID,0,VALID,23.7135,VALID,66,VALID,0,
2014-03-28, 03:43:04,VALID,1009.47,VALID,0,INVALID,109.308,VALID,0,VALID,23.7153,VALID,66,VALID,0,
2014-03-28, 03:44:04,VALID,1009.47,VALID,0,INVALID,109.346,VALID,0,VALID,23.7135,VALID,66,VALID,0,
2014-03-28, 03:45:04,VALID,1009.46,VALID,0,INVALID,109.346,VALID,0,VALID,23.694,VALID,66,VALID,0,
2014-03-28, 03:46:04,VALID,1009.46,VALID,0,INVALID,109.33,VALID,0,VALID,23.6745,VALID,66,VALID,0,
2014-03-28, 03:47:04,VALID,1009.44,VALID,0,INVALID,109.3,VALID,0,VALID,23.694,VALID,66,VALID,0,
2014-03-28, 03:48:04,VALID,1009.44,VALID,0,INVALID,109.254,VALID,0,VALID,23.6958,VALID,65,VALID,0,
2014-03-28, 03:49:04,VALID,1009.41,VALID,0,INVALID,109.247,VALID,0,VALID,23.6958,VALID,65,VALID,0,
2014-03-28, 03:50:04,VALID,1009.44,VALID,0,INVALID,109.3,VALID,0,VALID,23.7153,VALID,66,VALID,0,
2014-03-28, 03:51:04,VALID,1009.42,VALID,0,INVALID,109.216,VALID,0,VALID,23.6745,VALID,66,VALID,0,
2014-03-28, 03:52:04,VALID,1009.4,VALID,0,INVALID,109.292,VALID,0,VALID,23.7153,VALID,66,VALID,0,
2014-03-28, 03:53:04,VALID,1009.4,VALID,0,INVALID,109.193,VALID,0,VALID,23.6745,VALID,66,VALID,0,
2014-03-28, 03:54:04,VALID,1009.41,VALID,0,INVALID,109.239,VALID,0,VALID,23.6745,VALID,66,VALID,0,
2014-03-28, 03:55:04,VALID,1009.41,VALID,0,INVALID,109.155,VALID,0,VALID,23.655,VALID,66,VALID,0,
2014-03-28, 03:56:04,VALID,1009.43,VALID,0,INVALID,109.254,VALID,0,VALID,23.6958,VALID,66,VALID,0,